• MPC Preparation (Info)

  • MPEC 2022-V163 : 2022 VG2

    The following Minor Planet Electronic Circular may be linked-to from your own Web pages, but must not otherwise be redistributed electronically.

    A form allowing access to any MPEC is at the bottom of this page.


    Read MPEC 2022-V162 Read MPEC 2022-V164


    M.P.E.C. 2022-V163                            Issued 2022 November 14, 23:14 UT
    
         The Minor Planet Electronic Circulars contain information on unusual
             minor planets, routine data on comets and natural satellites,
             and occasional editorial announcements.  They are published
        on behalf of Division F of the International Astronomical Union by the
              Minor Planet Center, Smithsonian Astrophysical Observatory,
                              Cambridge, MA 02138, U.S.A.
    			  
                 Prepared using the Tamkin Foundation Computer Network
    
                                  MPC@CFA.HARVARD.EDU
                URL https://www.minorplanetcenter.net/    ISSN 1523-6714
    
                                    2022 VG2                                 
    
    
    Observations:
         K22V02G  C2022 11 14.23608500 56 11.747+08 54 12.05         17.78GVEV163F52
         K22V02G  C2022 11 14.24751000 57 14.620+08 49 20.55         17.48GVEV163F52
         K22V02G  C2022 11 14.28044001 00 12.256+08 35 27.43               VEV163F52
         K22V02G  C2022 11 14.29134401 01 10.032+08 30 54.25               VEV163F52
         K22V02G*KC2022 11 14.51255201 19 59.946+06 59 10.75         18.3 GXEV163O75
         K22V02G KC2022 11 14.51521401 20 12.083+06 58 12.40         18.1 GXEV163O75
         K22V02G KC2022 11 14.51787601 20 24.084+06 57 14.04         17.8 GXEV163O75
         K22V02G KC2022 11 14.73806701 35 33.073+05 41 49.53               XEV163O75
         K22V02G KC2022 11 14.74107601 35 44.535+05 40 51.59         19.2 GXEV163O75
         K22V02G 1C2022 11 14.74280901 36 28.760+05 40 08.30               qEV163246
         K22V02G 1C2022 11 14.74294201 36 29.240+05 40 06.20         18.7 RqEV163246
         K22V02G 1C2022 11 14.74304001 36 29.550+05 40 04.60               qEV163246
         K22V02G 1C2022 11 14.74313901 36 29.960+05 40 03.10               qEV163246
         K22V02G 1C2022 11 14.74323801 36 30.390+05 40 00.70               qEV163246
         K22V02G 1C2022 11 14.74333701 36 30.710+05 39 58.80               qEV163246
         K22V02G 1C2022 11 14.74343601 36 31.100+05 39 57.00               qEV163246
         K22V02G KC2022 11 14.74408001 35 56.057+05 39 53.02         19.7 GXEV163O75
         K22V02G KC2022 11 14.78723 01 39 17.43 +05 26 56.6          18.5 GVEV163K83
         K22V02G KC2022 11 14.80014 01 40 04.35 +05 23 00.1          18.9 GVEV163K83
         K22V02G KC2022 11 14.81617701 41 00.941+05 17 23.03         18.4 GXEV163K74
         K22V02G KC2022 11 14.82218501 41 22.397+05 15 34.74         18.2 GXEV163K74
         K22V02G KC2022 11 14.82827001 41 44.018+05 13 44.83         17.8 GXEV163K74
         K22V02G KC2022 11 14.83367501 42 03.132+05 12 08.24         17.2 GXEV163K74
         K22V02G KC2022 11 14.83846801 42 20.004+05 10 42.53         17.5 GXEV163K74
         K22V02G KC2022 11 14.83855 01 42 16.86 +05 10 45.5          18.5 GXEV163G02
         K22V02G KC2022 11 14.84184 01 42 28.39 +05 09 46.5          18.4 GXEV163G02
         K22V02G KC2022 11 14.84333101 42 37.078+05 09 15.91         17.4 GXEV163K74
         K22V02G KC2022 11 14.84379601 42 39.29 +05 09 49.6          18.2 GVEV163104
         K22V02G KC2022 11 14.84524 01 42 40.30 +05 08 45.6          18.2 GXEV163G02
         K22V02G KC2022 11 14.84644401 42 48.51 +05 09 02.3          17.9 GVEV163104
         K22V02G KC2022 11 14.84819301 42 54.077+05 07 48.79         17.5 GXEV163K74
         K22V02G KC2022 11 14.84846 01 42 51.53 +05 07 48.4          18.3 GXEV163G02
         K22V02G KC2022 11 14.84909101 42 57.70 +05 08 15.2          17.8 GVEV163104
         K22V02G KC2022 11 14.85139 01 43 01.69 +05 06 57.2          18.3 GXEV163G02
         K22V02G KC2022 11 14.85438 01 43 12.08 +05 06 03.7          18.1 GXEV163G02
         K22V02G KC2022 11 14.85559 01 43 20.364+05 06 19.22         17.6 VZEV163K63
         K22V02G KC2022 11 14.85990 01 43 35.179+05 05 03.05         17.9 VZEV163K63
         K22V02G 1C2022 11 14.86181 01 43 28.65 +05 04 22.0          18.9 GVEV163C40
         K22V02G 1C2022 11 14.86734 01 43 47.60 +05 02 43.9          18.9 GVEV163C40
         K22V02G 1C2022 11 14.87287 01 44 06.60 +05 01 05.9          18.9 GVEV163C40
         K22V02G 1C2022 11 14.89161 01 45 22.32 +04 54 59.4          19.4 VXEV163033
         K22V02G 1C2022 11 14.89189 01 45 23.31 +04 54 54.5          19.3 VXEV163033
         K22V02G 1C2022 11 14.89226 01 45 24.53 +04 54 47.6          19.2 VXEV163033
         K22V02G KC2022 11 14.89625501 45 39.16 +04 54 16.8          18.5 GVEV163203
         K22V02G KC2022 11 14.90364401 46 03.86 +04 52 09.2          18.2 GVEV163203
         K22V02G 1C2022 11 14.90877 01 46 08.06 +04 50 40.0          18.2 GVEV163C40
         K22V02G KC2022 11 14.91146801 46 29.84 +04 49 55.0          18.5 GVEV163203
         K22V02G 1C2022 11 14.91153 01 46 17.31 +04 49 52.2          18.4 GVEV163C40
         K22V02G 1C2022 11 14.91583 01 46 31.65 +04 48 38.4          18.2 GVEV163C40
         K22V02G mC2022 11 14.92530801 47 14.95 +04 45 57.5          18.3 GVEV163130
         K22V02G mC2022 11 14.93051901 47 32.01 +04 44 28.9          18.1 GVEV163130
         K22V02G mC2022 11 14.93593401 47 49.71 +04 42 57.1          18.2 GVEV163130
    
    Observer details:
    033 Karl Schwarzschild Observatory, Tautenburg.  Observers S. Melnikov, C.
        Hoegner, F. Ludwig, B. Stecklum.  Measurer B. Stecklum.  1.34-m f/3
        Schmidt + CCD.
    104 San Marcello Pistoiese.  Observers P. Bacci, M. Maestripieri.  Measurers
        P. Bacci, L. Tesi, G. Fagioli.  0.60-m F4 Reflector + CCD.
    130 Lumezzane.  Observers A. Coffano, W. Marinello, M. Micheli, G. Pizzetti,
        A. Soffiantini.  Measurer W. Marinello.  0.40-m f/6.0 reflector + CCD.
    203 GiaGa Observatory.  Observers S. Foglia, G. Galli.  Measurer G. Galli.
        0.36-m f/5.76 Schmidt-Cassegrain + CCD.
    246 Klet Observatory-KLENOT.  Observers M. Tichy, J. Ticha, M. Honkova, M.
        Janda.  Measurer M. Tichy.  1.06-m f/2.7 Reflector + 2048x2048 CCD.
    C40 Kuban State University Astrophysical Observatory.  Observers A. Ivanov, A.
        Barcov, V. Ivanov, V. Lysenko, N. Yakovenko, N. Ivanova, N. Gorbunov, G.
        Kurbatov, P. Shchukin, V. Roshchupko.  Measurer A. Ivanov.  0.51-m f/8
        reflector + CCD.
    F52 Pan-STARRS 2, Haleakala.  Observers J. Bulger, K. Chambers, T. Dukes, T.
        Lowe, A. Schultz, I. Smith.  Measurers S. Chastel, J. Fairlamb, M. Huber,
        Y. Ramanjooloo, R. Wainscoat, R. Weryk.  1.8-m Ritchey-Chretien + CCD.
    G02 KYSUCE Observatory, Kysucke Nove Mesto.  Observer M. Urbanik.  0.40-m
        f/5.5 Corrected Dall-Kirkham + CCD.
    K63 G. Pascoli Observatory, Castelvecchio Pascoli.  Observer R. Bacci.  0.41-m
        f/3.2 reflector + CCD.
    K74 Muensterschwarzach Observatory, Schwarzach.  Observer C. Gerhard.  0.30-m
        f/3.75 reflector + CCD.
    K83 Beppe Forti Astronomical Observatory, Montelupo.  Observers M. Tombelli,
        E. Venticinque, A. Mazzanti, M. Lombardo.  Measurers M. Tombelli, F.
        Bernardi.  0.40-m f/8 Ritchey-Chretien + CCD.
    O75 ISON-Hureltogoot Observatory.  Observer L. Elenin.  0.40-m f/2.4 reflector
        + CCD, 0.4-m f/2.4 reflector + CCD.
    
    Orbital elements:
    2022 VG2                                                 Earth MOID = 0.0057 AU
    Epoch 2022 Aug. 9.0 TT = JDT 2459800.5                  Veres                   
    M 330.68453              (2000.0)            P               Q                  
    n   0.62606227     Peri.  111.16743     +0.94217074     +0.30582348             
    a   1.3532905      Node   231.28830     -0.33340558     +0.89681336             
    e   0.3940390      Incl.   10.11671     +0.03398560     +0.31968390             
    P   1.57           H   26.38          G   0.15           U   7                  
    Residuals in seconds of arc
    221114 F52  0.1-  0.0     221114 K83  0.3-  0.1-    221114 K63  0.2+  0.5-
    221114 F52  0.1+  0.0     221114 K74  0.3+  0.7-    221114 C40  0.5+  0.3+
    221114 F52  0.3-  0.0     221114 K74  0.2+  0.4-    221114 C40  0.5-  0.2+
    221114 F52  0.5+  0.3+    221114 K74  0.2+  0.7-    221114 C40  0.2+  0.1-
    221114 O75  2.9-  1.2+    221114 K74  0.1+  0.3-    221114 033  0.3-  0.2+
    221114 O75  1.1-  1.0+    221114 K74  0.0   0.2-    221114 033  0.3+  0.1+
    221114 O75  0.8-  0.7+    221114 G02  0.1+  0.5-    221114 033  0.1-  0.4-
    221114 O75  0.1+  0.3+    221114 G02  0.1+  0.7-    221114 203  0.1+  0.1-
    221114 O75  0.5-  0.3+    221114 K74  0.1+  0.0     221114 203  0.3+  0.2-
    221114 246  0.1+  0.5-    221114 104  0.0   0.1+    221114 C40  0.3-  0.6+
    221114 246  0.3-  0.1-    221114 G02  0.5+  0.9-    221114 203  0.0   0.1+
    221114 246  1.3-  0.2+    221114 104  0.1+  0.0     221114 C40  0.0   0.5+
    221114 246  0.8-  0.6+    221114 K74  0.3+  0.6-    221114 C40  0.3-  0.7+
    221114 246  0.0   0.0     221114 G02  0.6+  0.7-    221114 130  0.1+  0.0
    221114 246  0.8-  0.0     221114 104  0.1+  0.0     221114 130  0.2-  0.0
    221114 246  0.6-  0.1+    221114 G02  0.1+  0.2+    221114 130  0.0   0.1-
    221114 O75  0.3+  0.4-    221114 G02  0.3+  0.2-
    221114 K83  0.1-  0.4-    221114 K63  0.4+  0.5-
    
    Ephemeris:
    2022 VG2                 a,e,i = 1.35, 0.39, 10                  q = 0.8200
    Date    TT    R. A. (2000) Decl.     Delta      r    Elong.  Phase     V
    2022 10 15    16 02 42.8 +05 29 23   0.2137  0.8540    43.1   127.0    28.1
    ...
    2022 10 30    16 24 15.2 +07 54 20   0.1011  0.9163    38.5   137.6    27.8
    ...
    2022 11 07    16 54 07.3 +10 23 53   0.04424 0.9583    41.1   137.2    26.0
    ...
    2022 11 13    21 57 59.7 +18 07 36   0.0096580.9925   106.2    73.3    18.9
    2022 11 14    00 30 54.0 +10 44 45   0.01156 0.9983   139.6    40.0    18.3
    2022 11 15    01 51 26.7 +04 31 20   0.01656 1.0043   154.4    25.2    18.6
    ...
    2022 11 21    03 29 18.0 -03 40 22   0.05704 1.0405   156.3    22.5    21.3
    ...
    2022 11 29    03 47 54.6 -04 38 03   0.1151  1.0903   152.9    24.3    23.0
    ...
    2022 12 14    03 59 11.4 -03 25 06   0.2329  1.1854   146.4    27.4    24.8
    
    M. P. C. Staff               (C) Copyright 2022 MPC           M.P.E.C. 2022-V163
    


    Read MPEC 2022-V162 Read MPEC 2022-V164


    MPEC number:

    Enter an MPEC number in one of the following forms:

    • 1997-B01 (the full form)
    • J97B01 (the packed version of the full form)
    • B01 (the abbreviated form)